Погода в Таре

Погода в Таре : погода сейчас, прогноз погоды и архив. Всё, что Вы хотите узнать о погоде в Таре!

Хотите узнать прогноз погоды в Таре? Тогда Вам сюда: Погода в Таре

Поиск расширенной информации на нашем сайте:

Полезная информация: провода для активного сабвуфера

Другие новости

Новости СМИ2

Главная страница сайта

Новости сайта

03.07.2017

Напоминаем, что на нашем специализированном сайте Метеоцентр.Азия вы можете получить высокодетализированные автоматические прогнозы погоды по пунктам России, СНГ и мира в авиационном формате (включающие направление и скорость ветра, видимость, явления погоды, количество и форму облачности, нижнюю и верхнюю границу облачности).

Рекомендуем: планировка таунхаусов

Погода в Таре - сегодня

Время (UTC), дата Ветер
(°,м/с) 
Видим.   Явления Облачность Т
(°С)
Тd
(°С)
f(%) Тe
(°С)
Pmin
(гПа)
dP
(гПа)
Po
(мм)
O2
(г/м3)
Тmin Tmax R s Состояние
почвы
18 15.10.17 330 (СЗ) 10 км  {дождь}  10/10 600 м 
[Sc]
+2.5 +1.2 91 +2  1010.8  0.1  751  300           
21 15.10.17 350 (С) 10 км    10/10 600 м 
[Sc]
+2.6 +0.7 87 +2  1011.9  1.1  752  300           
00 16.10.17 310 (СЗ) 10 км    4/0 средняя 
[Ac trans]
+0.6 -1.1 88 +1  1013.9  1.9  754  303           
03 16.10.17 330 (СЗ) 20000 м    9/0 средняя 
[Ac As]
+1.2 -1.4 83 +2  1016.2  2.2  755  303  +0.3         
06 16.10.17 010 (С) 20000 м    6/0 верхняя 
[Ci fib]
+6 -1.9 57 +6  1017.6  1.6  756  298           
09 16.10.17 340 (С) 20000 м    8/0 верхняя 
[Ci fib]
+8.8 -4.4 39 +8  1018.7  1.1  757  296           
12 16.10.17 030 (СВ) 20000 м    8/0 верхняя 
[Ci sp]
+6.6 -4.3 46 +8  1020.6  1.8  759  299           
15 16.10.17 030 (СВ) 10 км    8/0 средняя, верхняя 
[Ac trans|Ci fib]
+2 -4 64 +3  1022.6  1.8  760  304    +9.4       
18 16.10.17 070 (В) 10 км    ясно 
+1.1 -4.7 65 +2  1024.1  1.5  761  306           
21 16.10.17 090 (В) 10 км    ясно 
+0 -5.1 68 -1  1024.7  0.5  762  307           
00 17.10.17 070 (В) 10 км    ясно 
-1.6 -5.3 76 -3  1025  0.2  762  309           
03 17.10.17 090 (В) 20000 м    ясно 
-0.5 -4.8 73 1025.6  0.6  762  308  -2.4         
06 17.10.17 110 (В) 20000 м    1/0 верхняя 
[Ci fib]
+6 -3.6 50 +5  1024.3  -1  761  301           
09 17.10.17 140 (ЮВ) 20000 м    ясно 
+7.4 -4.3 43 +6  1022.6  -1.6  760  299           
12 17.10.17 110 (В) 20000 м    3/0 верхняя 
[Ci fib]
+5.4 -2.5 57 +5  1021.7  -1  759  300           
15 17.10.17 110 (В) 10 км    1/0 верхняя 
[Ci fib]
+2 -2.7 71 +1  1020.8  -1  759  304    +7.9       
18 17.10.17 110 (В) 10 км    8/0 верхняя 
[Ci fib]
+2.2 -1.1 79 +2  1019.2  -1.6  758  303           
21 17.10.17 090 (В) 10 км    8/0 средняя, верхняя 
[Ac As|Ci fib]
+2 -1.1 80 +1  1017.2  -2  756  303           
00 18.10.17 090 (В) 10 км    ясно 
+0.4 -2 84 1015.5  -1.7  755  304           
03 18.10.17 120 (ЮВ) 20000 м    8/0 верхняя 
[Ci fib]
+1.1 -1.4 83 1014.2  -1.3  754  303  -0         
06 18.10.17 130 (ЮВ) 20000 м    3/0 верхняя 
[Ci fib]
+6.1 +0.4 67 +5  1012.9  -1.1  753  297           
09 18.10.17 110 (В) 20000 м    ясно 
+7.7 +0.9 62 +6  1011.5  -1.4  752  295           
12 18.10.17 110 (В) 20000 м    3/0 верхняя 
[Ci sp]
+3.9 -0 76 +3  1010.6  -1  751  298           
15 18.10.17 140 (ЮВ) 10 км    10/0 средняя 
[Ac und]
+2.1 -0.1 85 1010.4  -0.3  751  300    +8.1       
18 18.10.17 120 (ЮВ) 10 км    10/0 средняя 
[As trans]
+0.5 -2 83 1009.4  -1  750  302           
Время (UTC), дата Ветер
(°,м/с) 
Видим.   Явления Облачность Т
(°С)
Тd
(°С)
f(%) Тe
(°С)
Pmin
(гПа)
dP
(гПа)
Po
(мм)
O2
(г/м3)
Тmin Tmax R s Состояние
почвы

Для получения пояснительной информации подведите курсор к названию столбца.

ПОГОДА в Таре - архив

Всё, что Вы хотите узнать о погоде в Таре - удобно и подробно!

Выберите нужную дату (начиная с 1 января 2015* года) и нажмите кнопку "Найти".
Будут отображены архивные сводки погоды по пункту Тара, начиная с указанной даты.


Отображать данные в формате CSV (для использования в таблицах Excel)


Внимание! Наш архив погоды предназначен исключительно для личного некоммерческого использования в познавательных целях. Если Вам необходимы официальные справки о состоянии погоды (для производственных, юридических, коммерческих и т.п. целей), обращайтесь в органы Росгидромета.

*Примечание: данная дата относится к архиву по метеостанциям СССР (Россия, СНГ, Балтия).
Архив по метеостанциям Зарубежной Европы и Азии (кроме Китая) хранится 10 дней, по другим регионам земного шара (Китай, Африка, Америка, Австралия, Океания) - 1 день.

Тара - район местоположения метеостанции


Название, широта, долгота, высота метеостанции:
Тара 56.9°ш. 74.4°д. 73 м над ур. моря [Российская Федерация]

Дополнительная информация

В oтличие oт бoльшинства пoгoдных сайтoв мы публикуем пoдрoбную метеoинфoрмацию в детальнoм прoфессиoнальнoм фoрмате.

Характеристики температуры и влажнoсти вoздуха измеряются на высoте 2 м в тени вдали oт зданий и деревьев.
Скoрoсть ветра измеряется на высoте 10 м (на урoвне рoста челoвека скoрoсть ветра ниже в 1.5-2 раза). Если метеoстанция нахoдится в гoрoде или в лесу, тo скoрoсть ветра занижена на 2-4 м/с пo сравнению с oткрытым местoм. Скoрoсть ветра над акватoриями крупных рек и oзёр, а также на вершинах хoлмoв на 2-5 м/с выше, чем в oбычных услoвиях.
Атмoсфернoе давление в разных тoчках местнoсти мoжет значительнo oтличаться oт давления на метеoстанции, в зависимoсти oт услoвий рельефа (при пoдъёме на 10 м давление пoнижается примернo на 1 мм рт.ст.).